When you browse on this site, cookies collect data to enhance your experience and personalize the content and advertising you see.
Visit our Privacy Policy to learn more. By continuing to use the site, you agree to this use of cookies and data.
  • In Portugal
  • List of Countries
  • For 7 days
  • Water Temperature
  • Satellite Maps
  • Weather Map
  • Weather Widgets
  • user-avatar
    Login

    Hourly Weather Asuan

    Today, 22 March, Friday

    Time Temperature Precipitation Wind Pressure Humidity
    00:00 +27°C° 0 mm 4 mps 743 mmHg 21%
    01:00 +27°C° 0 mm 4 mps 743 mmHg 21%
    02:00 +26°C° 0 mm 4 mps 743 mmHg 22%
    03:00 +25°C° 0 mm 4 mps 743 mmHg 23%
    04:00 +25°C° 0 mm 4 mps 743 mmHg 24%
    05:00 +24°C° 0 mm 3 mps 743 mmHg 24%
    06:00 +25°C° 0 mm 4 mps 743 mmHg 22%
    07:00 +27°C° 0 mm 4 mps 743 mmHg 20%
    08:00 +28°C° 0 mm 5 mps 744 mmHg 19%
    09:00 +29°C° 0 mm 5 mps 744 mmHg 17%
    10:00 +32°C° 0 mm 4 mps 744 mmHg 15%
    11:00 +34°C° 0 mm 4 mps 744 mmHg 13%
    12:00 +34°C° 0 mm 4 mps 743 mmHg 13%
    13:00 +35°C° 0 mm 3 mps 742 mmHg 13%
    14:00 +35°C° 0 mm 3 mps 742 mmHg 14%
    15:00 +35°C° 0 mm 3 mps 741 mmHg 14%
    16:00 +35°C° 0 mm 3 mps 741 mmHg 14%
    17:00 +35°C° 0 mm 3 mps 741 mmHg 14%
    18:00 +34°C° 0 mm 3 mps 741 mmHg 15%
    19:00 +33°C° 0 mm 3 mps 741 mmHg 17%
    20:00 +30°C° 0 mm 4 mps 742 mmHg 18%
    21:00 +30°C° 0 mm 3 mps 742 mmHg 18%
    22:00 +30°C° 0 mm 3 mps 742 mmHg 18%
    23:00 +30°C° 0 mm 3 mps 742 mmHg 18%

    Tomorrow, 23 March, Saturday

    Time Temperature Precipitation Wind Pressure Humidity
    00:00 +29°C° 0 mm 3 mps 742 mmHg 18%
    01:00 +29°C° 0 mm 3 mps 742 mmHg 19%
    02:00 +29°C° 0 mm 3 mps 742 mmHg 19%
    03:00 +28°C° 0 mm 3 mps 741 mmHg 21%
    04:00 +27°C° 0 mm 3 mps 741 mmHg 22%
    05:00 +27°C° 0 mm 3 mps 741 mmHg 23%
    06:00 +28°C° 0 mm 3 mps 741 mmHg 22%
    07:00 +29°C° 0 mm 3 mps 741 mmHg 22%
    08:00 +30°C° 0 mm 4 mps 741 mmHg 22%
    09:00 +33°C° 0 mm 5 mps 740 mmHg 19%
    10:00 +35°C° 0 mm 6 mps 740 mmHg 17%
    11:00 +36°C° 0 mm 7 mps 740 mmHg 14%
    12:00 +38°C° 0 mm 6 mps 739 mmHg 13%
    13:00 +39°C° 0 mm 6 mps 738 mmHg 12%
    14:00 +40°C° 0 mm 6 mps 737 mmHg 11%
    15:00 +41°C° 0 mm 5 mps 737 mmHg 11%
    16:00 +41°C° 0 mm 5 mps 737 mmHg 11%
    17:00 +41°C° 0 mm 4 mps 736 mmHg 11%
    18:00 +38°C° 0 mm 3 mps 737 mmHg 13%
    19:00 +36°C° 0 mm 2 mps 737 mmHg 14%
    20:00 +33°C° 0 mm 1 mps 737 mmHg 15%
    21:00 +32°C° 0 mm 2 mps 737 mmHg 15%
    22:00 +32°C° 0 mm 2 mps 737 mmHg 16%
    23:00 +32°C° 0 mm 2 mps 737 mmHg 16%

    Day after tomorrow, 24 March, Sunday

    Time Temperature Precipitation Wind Pressure Humidity
    00:00 +31°C° 0 mm 2 mps 736 mmHg 16%
    01:00 +31°C° 0 mm 2 mps 736 mmHg 16%
    02:00 +30°C° 0 mm 2 mps 735 mmHg 16%
    03:00 +30°C° 0 mm 3 mps 735 mmHg 16%
    04:00 +30°C° 0 mm 5 mps 736 mmHg 16%
    05:00 +29°C° 0 mm 6 mps 736 mmHg 16%
    06:00 +30°C° 0 mm 7 mps 736 mmHg 15%
    07:00 +30°C° 0 mm 7 mps 737 mmHg 14%
    08:00 +32°C° 0 mm 8 mps 737 mmHg 13%
    09:00 +33°C° 0 mm 8 mps 737 mmHg 12%
    10:00 +34°C° 0 mm 8 mps 737 mmHg 11%
    11:00 +37°C° 0 mm 9 mps 737 mmHg 10%
    12:00 +37°C° 0 mm 9 mps 737 mmHg 10%
    13:00 +37°C° 0 mm 9 mps 736 mmHg 10%
    14:00 +37°C° 0 mm 8 mps 735 mmHg 9%
    15:00 +37°C° 0 mm 8 mps 735 mmHg 10%
    16:00 +35°C° 0 mm 8 mps 735 mmHg 11%
    17:00 +34°C° 0 mm 7 mps 735 mmHg 12%
    18:00 +33°C° 0 mm 6 mps 736 mmHg 13%
    19:00 +32°C° 0 mm 5 mps 736 mmHg 15%
    20:00 +30°C° 0 mm 4 mps 737 mmHg 16%
    21:00 +30°C° 0 mm 5 mps 737 mmHg 17%
    22:00 +29°C° 0 mm 5 mps 737 mmHg 18%
    23:00 +29°C° 0 mm 6 mps 737 mmHg 19%

    25 March, Monday

    Time Temperature Precipitation Wind Pressure Humidity
    00:00 +28°C° 0 mm 6 mps 737 mmHg 21%
    01:00 +27°C° 0 mm 7 mps 737 mmHg 22%
    02:00 +27°C° 0 mm 7 mps 737 mmHg 23%
    03:00 +26°C° 0 mm 7 mps 737 mmHg 24%
    04:00 +24°C° 0 mm 8 mps 737 mmHg 26%
    05:00 +23°C° 0 mm 8 mps 738 mmHg 27%
    06:00 +23°C° 0 mm 8 mps 738 mmHg 28%
    07:00 +23°C° 0 mm 8 mps 739 mmHg 30%
    08:00 +23°C° 0 mm 8 mps 740 mmHg 31%
    09:00 +24°C° 0 mm 8 mps 740 mmHg 30%
    10:00 +26°C° 0 mm 8 mps 740 mmHg 29%
    11:00 +27°C° 0 mm 8 mps 740 mmHg 29%
    12:00 +27°C° 0 mm 8 mps 740 mmHg 27%
    13:00 +28°C° 0 mm 8 mps 739 mmHg 25%
    14:00 +28°C° 0 mm 9 mps 739 mmHg 23%
    15:00 +28°C° 0 mm 8 mps 739 mmHg 24%
    16:00 +27°C° 0 mm 8 mps 740 mmHg 24%
    17:00 +27°C° 0 mm 8 mps 740 mmHg 25%
    18:00 +26°C° 0 mm 7 mps 740 mmHg 27%
    19:00 +24°C° 0 mm 6 mps 741 mmHg 28%
    20:00 +23°C° 0 mm 6 mps 742 mmHg 30%
    21:00 +22°C° 0 mm 5 mps 742 mmHg 32%
    22:00 +22°C° 0 mm 5 mps 742 mmHg 33%
    23:00 +21°C° 0 mm 5 mps 743 mmHg 34%

    26 March, Tuesday

    Time Temperature Precipitation Wind Pressure Humidity
    00:00 +21°C° 0 mm 4 mps 742 mmHg 35%
    01:00 +20°C° 0 mm 4 mps 742 mmHg 35%
    02:00 +19°C° 0 mm 4 mps 742 mmHg 36%
    03:00 +19°C° 0 mm 4 mps 742 mmHg 36%
    04:00 +18°C° 0 mm 4 mps 743 mmHg 35%
    05:00 +18°C° 0 mm 4 mps 743 mmHg 35%
    06:00 +18°C° 0 mm 4 mps 743 mmHg 33%
    07:00 +19°C° 0 mm 4 mps 744 mmHg 31%
    08:00 +20°C° 0 mm 4 mps 745 mmHg 29%
    09:00 +21°C° 0 mm 4 mps 744 mmHg 26%
    10:00 +22°C° 0 mm 3 mps 744 mmHg 23%
    11:00 +25°C° 0 mm 3 mps 744 mmHg 19%
    12:00 +26°C° 0 mm 3 mps 744 mmHg 18%
    13:00 +27°C° 0 mm 4 mps 743 mmHg 16%
    14:00 +28°C° 0 mm 5 mps 742 mmHg 14%
    15:00 +27°C° 0 mm 5 mps 742 mmHg 15%
    16:00 +27°C° 0 mm 6 mps 742 mmHg 15%
    17:00 +27°C° 0 mm 6 mps 742 mmHg 15%
    18:00 +26°C° 0 mm 5 mps 743 mmHg 17%
    19:00 +23°C° 0 mm 4 mps 743 mmHg 18%
    20:00 +22°C° 0 mm 4 mps 744 mmHg 20%
    21:00 +22°C° 0 mm 4 mps 744 mmHg 19%
    22:00 +21°C° 0 mm 4 mps 744 mmHg 19%
    23:00 +21°C° 0 mm 3 mps 744 mmHg 19%

    27 March, Wednesday

    Time Temperature Precipitation Wind Pressure Humidity
    00:00 +20°C° 0 mm 4 mps 744 mmHg 19%
    01:00 +20°C° 0 mm 4 mps 744 mmHg 19%
    02:00 +19°C° 0 mm 4 mps 744 mmHg 19%
    03:00 +19°C° 0 mm 4 mps 744 mmHg 20%
    04:00 +18°C° 0 mm 4 mps 745 mmHg 21%
    05:00 +18°C° 0 mm 4 mps 745 mmHg 22%
    06:00 +19°C° 0 mm 4 mps 746 mmHg 21%
    07:00 +20°C° 0 mm 4 mps 746 mmHg 21%
    08:00 +21°C° 0 mm 4 mps 747 mmHg 20%
    09:00 +23°C° 0 mm 4 mps 747 mmHg 19%
    10:00 +25°C° 0 mm 4 mps 746 mmHg 17%
    11:00 +26°C° 0 mm 4 mps 746 mmHg 16%
    12:00 +27°C° 0 mm 3 mps 746 mmHg 15%
    13:00 +28°C° 0 mm 3 mps 745 mmHg 13%
    14:00 +28°C° 0 mm 3 mps 744 mmHg 12%
    15:00 +28°C° 0 mm 3 mps 744 mmHg 12%
    16:00 +28°C° 0 mm 3 mps 744 mmHg 12%
    17:00 +28°C° 0 mm 3 mps 744 mmHg 11%
    18:00 +27°C° 0 mm 3 mps 745 mmHg 13%
    19:00 +26°C° 0 mm 3 mps 745 mmHg 14%
    20:00 +24°C° 0 mm 3 mps 746 mmHg 15%
    21:00 +24°C° 0 mm 3 mps 746 mmHg 16%
    22:00 +22°C° 0 mm 4 mps 746 mmHg 18%
    23:00 +22°C° 0 mm 4 mps 746 mmHg 19%
    Show more